Regional Weather Roundup
Issued by NWS

Home | Current Version | Previous Version | Text Only | Print | Product List | Glossary Off
Versions: 1 2 3 4 5 6 7 8 9 10 11 12 13 14 15 16 17 18 19 20 21 22 23 24 25 26 27 28 29 30 31 32 33 34 35 36 37 38 39 40 41 42 43 44 45 46 47 48 49 50

000
ASUS43 KFSD 281610
RWRSD

WEATHER ROUNDUP FOR SOUTH DAKOTA
NATIONAL WEATHER SERVICE SIOUX FALLS SD
1000 AM CST FRI NOV 28 2014

NOTE: "FAIR" INDICATES FEW OR NO CLOUDS BELOW 12,000 FEET WITH NO
SIGNIFICANT WEATHER AND/OR OBSTRUCTIONS TO VISIBILITY.


SDZ001>005-009-010-012>017-281700-
NORTHWEST AND NORTH CENTRAL SOUTH DAKOTA

CITY           SKY/WX    TMP DP  RH WIND       PRES   REMARKS
BUFFALO          N/A     41  30  65 SE3       29.57F
FAITH            N/A     32  24  72 S13       29.66F WCI  22
MOBRIDGE       CLOUDY    20  15  81 E9        29.70F WCI   9
$$

SDZ012>016-024>037-041>051-057-063-072>074-281700-
SOUTHWEST AND SOUTH CENTRAL SOUTH DAKOTA

CITY           SKY/WX    TMP DP  RH WIND       PRES   REMARKS
RAPID CTY ARPT MOSUNNY   43  31  62 CALM      29.70F
PIERRE         MOSUNNY   23  17  78 NE3       29.70F
CUSTER         CLOUDY    46  23  40 W7        29.77F
ELLSWORTH AFB  MOSUNNY   40  31  69 W3        29.69F
PHILIP         PTSUNNY   33  27  78 W3        29.70S
PINE RIDGE     MOSUNNY   46  29  51 SW9       29.76S
SPEARFISH      FAIR      50  28  43 W5        29.71S
WINNER         FAIR      49  29  46 SW6       29.68F
$$

SDZ004>011-016>023-039-040-281700-
NORTHEAST SOUTH DAKOTA

CITY           SKY/WX    TMP DP  RH WIND       PRES   REMARKS
ABERDEEN       CLOUDY    18  12  77 NE9       29.81F WCI   7
WATERTOWN      CLOUDY    16  11  80 E7        29.79S WCI   6
SISSETON         N/A     10   7  87 S12       29.87F WCI  -5
$$

SDZ017-020-022-023-036>040-048>070-281700-
SOUTHEAST SOUTH DAKOTA

CITY           SKY/WX    TMP DP  RH WIND       PRES   REMARKS
SIOUX FALLS    CLOUDY    24  20  84 E5        29.81S WCI  18
HURON          PTSUNNY   26  19  74 SE7       29.78F WCI  18
CHAMBERLAIN    SUNNY     32  24  72 SE3       29.71S
MITCHELL       MOSUNNY   27  21  78 E7        29.79S WCI  19
YANKTON        MOSUNNY   30  21  69 E7        29.78F WCI  23
$$

ABBREVIATIONS USED IN REMARKS
   TC - TEMPERATURE IN CELSIUS
  WCI - WIND CHILL INDEX
   HX - HEAT INDEX
  VSB - VISIBILITY



USA.gov is the U.S. government's official web portal to all federal, state and local government web resources and services.